When you browse on this site, cookies collect data to enhance your experience and personalize the content and advertising you see.
Visit our Privacy Policy to learn more. By continuing to use the site, you agree to this use of cookies and data.
  • In Hungary
  • List of Countries
  • For 7 days
  • Water Temperature
  • Satellite Maps
  • Weather Map
  • News
  • Weather Widgets
  • user-avatar
    Login

    Hourly Weather Ciekoty

    Today, 20 May, Monday

    Time Temperature Precipitation Wind Pressure Humidity
    00:00 +15°C° 0 mm 2 mps 730 mmHg 93%
    01:00 +14°C° 0 mm 2 mps 729 mmHg 95%
    02:00 +14°C° 0 mm 2 mps 729 mmHg 95%
    03:00 +14°C° 0 mm 2 mps 729 mmHg 96%
    04:00 +14°C° 0 mm 2 mps 729 mmHg 97%
    05:00 +16°C° 0 mm 3 mps 728 mmHg 93%
    06:00 +17°C° 0 mm 4 mps 728 mmHg 90%
    07:00 +19°C° 0 mm 5 mps 728 mmHg 86%
    08:00 +20°C° 0 mm 5 mps 728 mmHg 78%
    09:00 +22°C° 0 mm 5 mps 728 mmHg 70%
    10:00 +23°C° 0 mm 5 mps 729 mmHg 62%
    11:00 +25°C° 0.3 mm 5 mps 729 mmHg 61%
    12:00 +24°C° 0.3 mm 6 mps 729 mmHg 60%
    13:00 +26°C° 0.3 mm 6 mps 729 mmHg 59%
    14:00 +26°C° 0 mm 6 mps 729 mmHg 59%
    15:00 +24°C° 0 mm 6 mps 729 mmHg 58%
    16:00 +24°C° 0 mm 6 mps 728 mmHg 58%
    17:00 +22°C° 0.1 mm 5 mps 728 mmHg 66%
    18:00 +21°C° 0.1 mm 4 mps 728 mmHg 74%
    19:00 +19°C° 0.1 mm 3 mps 728 mmHg 82%
    20:00 +18°C° 0 mm 3 mps 728 mmHg 85%
    21:00 +17°C° 0 mm 3 mps 729 mmHg 89%
    22:00 +16°C° 0 mm 3 mps 729 mmHg 92%
    23:00 +15°C° 0 mm 2 mps 729 mmHg 93%

    Tomorrow, 21 May, Tuesday

    Time Temperature Precipitation Wind Pressure Humidity
    00:00 +14°C° 0 mm 2 mps 729 mmHg 93%
    01:00 +13°C° 0 mm 2 mps 729 mmHg 94%
    02:00 +13°C° 0 mm 1 mps 728 mmHg 94%
    03:00 +13°C° 0 mm 1 mps 728 mmHg 94%
    04:00 +13°C° 0 mm 1 mps 728 mmHg 94%
    05:00 +14°C° 0.3 mm 1 mps 728 mmHg 93%
    06:00 +14°C° 0.3 mm 1 mps 728 mmHg 93%
    07:00 +15°C° 0.3 mm 1 mps 728 mmHg 93%
    08:00 +16°C° 0.5 mm 1 mps 728 mmHg 90%
    09:00 +16°C° 0.5 mm 2 mps 728 mmHg 88%
    10:00 +17°C° 0.5 mm 2 mps 728 mmHg 85%
    11:00 +18°C° 0.4 mm 2 mps 728 mmHg 83%
    12:00 +18°C° 0.4 mm 3 mps 728 mmHg 80%
    13:00 +19°C° 0.4 mm 3 mps 728 mmHg 78%
    14:00 +18°C° 2 mm 3 mps 727 mmHg 82%
    15:00 +17°C° 2 mm 4 mps 727 mmHg 86%
    16:00 +17°C° 2 mm 4 mps 727 mmHg 90%
    17:00 +15°C° 2.2 mm 4 mps 727 mmHg 91%
    18:00 +14°C° 2.2 mm 4 mps 727 mmHg 92%
    19:00 +14°C° 2.2 mm 5 mps 727 mmHg 93%
    20:00 +14°C° 0.8 mm 5 mps 727 mmHg 93%
    21:00 +13°C° 0.8 mm 5 mps 727 mmHg 93%
    22:00 +13°C° 0.8 mm 5 mps 727 mmHg 93%
    23:00 +13°C° 0.6 mm 5 mps 727 mmHg 93%

    Day after tomorrow, 22 May, Wednesday

    Time Temperature Precipitation Wind Pressure Humidity
    00:00 +13°C° 0.6 mm 5 mps 727 mmHg 94%
    01:00 +13°C° 0.6 mm 5 mps 727 mmHg 94%
    02:00 +13°C° 0.1 mm 5 mps 727 mmHg 94%
    03:00 +13°C° 0.1 mm 5 mps 727 mmHg 94%
    04:00 +13°C° 0.1 mm 5 mps 727 mmHg 95%
    05:00 +13°C° 0.1 mm 5 mps 727 mmHg 94%
    06:00 +13°C° 0.1 mm 5 mps 727 mmHg 94%
    07:00 +13°C° 0.1 mm 4 mps 728 mmHg 94%
    08:00 +13°C° 0.1 mm 4 mps 728 mmHg 93%
    09:00 +13°C° 0.1 mm 4 mps 728 mmHg 93%
    10:00 +14°C° 0.1 mm 4 mps 728 mmHg 92%
    11:00 +15°C° 0.3 mm 4 mps 729 mmHg 88%
    12:00 +17°C° 0.3 mm 4 mps 729 mmHg 84%
    13:00 +18°C° 0.3 mm 3 mps 729 mmHg 80%
    14:00 +19°C° 0.7 mm 3 mps 729 mmHg 79%
    15:00 +19°C° 0.7 mm 3 mps 729 mmHg 79%
    16:00 +19°C° 0.7 mm 3 mps 729 mmHg 78%
    17:00 +18°C° 0.8 mm 3 mps 729 mmHg 83%
    18:00 +17°C° 0.8 mm 3 mps 729 mmHg 88%
    19:00 +16°C° 0.8 mm 3 mps 728 mmHg 92%
    20:00 +15°C° 0.2 mm 2 mps 729 mmHg 94%
    21:00 +14°C° 0.2 mm 2 mps 729 mmHg 96%
    22:00 +14°C° 0.2 mm 2 mps 729 mmHg 97%
    23:00 +14°C° 0.5 mm 2 mps 729 mmHg 98%

    23 May, Thursday

    Time Temperature Precipitation Wind Pressure Humidity
    00:00 +14°C° 0.5 mm 2 mps 729 mmHg 98%
    01:00 +14°C° 0.5 mm 2 mps 729 mmHg 98%
    02:00 +14°C° 0.3 mm 2 mps 729 mmHg 98%
    03:00 +13°C° 0.3 mm 3 mps 729 mmHg 98%
    04:00 +13°C° 0.3 mm 3 mps 730 mmHg 98%
    05:00 +13°C° 0.5 mm 3 mps 730 mmHg 97%
    06:00 +13°C° 0.5 mm 4 mps 730 mmHg 96%
    07:00 +14°C° 0.5 mm 4 mps 731 mmHg 95%
    08:00 +14°C° 0.7 mm 4 mps 731 mmHg 93%
    09:00 +15°C° 0.7 mm 5 mps 732 mmHg 92%
    10:00 +15°C° 0.7 mm 5 mps 732 mmHg 91%
    11:00 +14°C° 0.9 mm 6 mps 732 mmHg 92%
    12:00 +13°C° 0.9 mm 6 mps 733 mmHg 93%
    13:00 +11°C° 0.9 mm 7 mps 733 mmHg 94%
    14:00 +10°C° 0.2 mm 7 mps 733 mmHg 93%
    15:00 +10°C° 0.2 mm 7 mps 733 mmHg 93%
    16:00 +10°C° 0.2 mm 6 mps 733 mmHg 93%
    17:00 +10°C° 0.1 mm 6 mps 734 mmHg 91%
    18:00 +9°C° 0.1 mm 6 mps 734 mmHg 90%
    19:00 +9°C° 0.1 mm 5 mps 734 mmHg 89%
    20:00 +9°C° 0 mm 5 mps 735 mmHg 87%
    21:00 +10°C° 0 mm 4 mps 735 mmHg 86%
    22:00 +10°C° 0 mm 4 mps 735 mmHg 84%
    23:00 +8°C° 0 mm 4 mps 735 mmHg 87%

    24 May, Friday

    Time Temperature Precipitation Wind Pressure Humidity
    00:00 +9°C° 0 mm 3 mps 735 mmHg 91%
    01:00 +9°C° 0 mm 3 mps 735 mmHg 94%
    02:00 +8°C° 0 mm 3 mps 736 mmHg 94%
    03:00 +8°C° 0 mm 3 mps 736 mmHg 94%
    04:00 +7°C° 0 mm 3 mps 736 mmHg 95%
    05:00 +8°C° 0 mm 3 mps 736 mmHg 88%
    06:00 +10°C° 0 mm 3 mps 736 mmHg 82%
    07:00 +11°C° 0 mm 4 mps 736 mmHg 76%
    08:00 +12°C° 0 mm 4 mps 736 mmHg 69%
    09:00 +14°C° 0 mm 4 mps 736 mmHg 63%
    10:00 +15°C° 0 mm 4 mps 735 mmHg 56%
    11:00 +17°C° 0 mm 4 mps 735 mmHg 54%
    12:00 +18°C° 0 mm 4 mps 735 mmHg 52%
    13:00 +19°C° 0 mm 4 mps 734 mmHg 50%
    14:00 +19°C° 0 mm 4 mps 734 mmHg 53%
    15:00 +18°C° 0 mm 3 mps 734 mmHg 55%
    16:00 +18°C° 0 mm 3 mps 733 mmHg 58%
    17:00 +17°C° 0 mm 3 mps 733 mmHg 64%
    18:00 +16°C° 0 mm 2 mps 733 mmHg 70%
    19:00 +14°C° 0 mm 1 mps 733 mmHg 77%
    20:00 +13°C° 0 mm 1 mps 733 mmHg 80%
    21:00 +12°C° 0 mm 1 mps 733 mmHg 83%
    22:00 +11°C° 0 mm 1 mps 733 mmHg 86%
    23:00 +11°C° 0 mm 1 mps 733 mmHg 87%

    25 May, Saturday

    Time Temperature Precipitation Wind Pressure Humidity
    00:00 +11°C° 0 mm 1 mps 733 mmHg 87%
    01:00 +11°C° 0 mm 1 mps 733 mmHg 88%
    02:00 +11°C° 0 mm 1 mps 732 mmHg 89%
    03:00 +10°C° 0 mm 1 mps 732 mmHg 89%
    04:00 +10°C° 0 mm 1 mps 732 mmHg 90%
    05:00 +12°C° 0 mm 1 mps 732 mmHg 83%
    06:00 +14°C° 0 mm 1 mps 732 mmHg 76%
    07:00 +16°C° 0 mm 1 mps 733 mmHg 68%
    08:00 +17°C° 0.1 mm 2 mps 733 mmHg 64%
    09:00 +18°C° 0.1 mm 2 mps 733 mmHg 59%
    10:00 +20°C° 0.1 mm 2 mps 733 mmHg 54%
    11:00 +20°C° 0.1 mm 2 mps 733 mmHg 53%
    12:00 +20°C° 0.1 mm 2 mps 733 mmHg 51%
    13:00 +21°C° 0.1 mm 3 mps 733 mmHg 50%
    14:00 +21°C° 0.1 mm 3 mps 732 mmHg 52%
    15:00 +21°C° 0.1 mm 3 mps 732 mmHg 55%
    16:00 +21°C° 0.1 mm 3 mps 732 mmHg 57%
    17:00 +19°C° 0.3 mm 3 mps 732 mmHg 66%
    18:00 +18°C° 0.3 mm 2 mps 732 mmHg 74%
    19:00 +16°C° 0.3 mm 2 mps 733 mmHg 83%
    20:00 +15°C° 0 mm 2 mps 733 mmHg 86%
    21:00 +14°C° 0 mm 2 mps 733 mmHg 90%
    22:00 +13°C° 0 mm 2 mps 734 mmHg 93%
    23:00 +13°C° 0 mm 2 mps 734 mmHg 93%
    Show more